Time,TemperatureF,DewpointF,PressureIn,WindDirection,WindDirectionDegrees,WindSpeedMPH,WindSpeedGustMPH,Humidity,HourlyPrecipIn,Conditions,Clouds,dailyrainin,SoftwareType,DateUTC
2013-05-12 00:02:00,-999.0,-99.9,29.84,WSW,250,5.0,-999.0,86,0.00,,,-99.99,,2013-05-12 04:02:00,
2013-05-12 00:12:00,37.0,34.0,29.84,WSW,250,7.0,-999.0,86,0.00,,,-99.99,,2013-05-12 04:12:00,
2013-05-12 00:22:00,37.0,34.0,29.83,WSW,250,7.0,-999.0,86,0.00,,,-99.99,,2013-05-12 04:22:00,
2013-05-12 00:32:00,37.0,34.0,29.83,WSW,240,7.0,-999.0,86,0.00,,,-99.99,,2013-05-12 04:32:00,
2013-05-12 00:42:00,37.0,34.0,29.83,WSW,250,6.0,-999.0,86,0.00,,,-99.99,,2013-05-12 04:42:00,
2013-05-12 00:52:00,37.0,34.0,29.83,West,260,6.0,-999.0,86,0.00,,,-99.99,,2013-05-12 04:52:00,
2013-05-12 01:02:00,37.0,34.0,29.83,West,260,6.0,-999.0,86,0.00,,,-99.99,,2013-05-12 05:02:00,
2013-05-12 01:11:00,37.0,34.0,29.84,West,260,8.0,-999.0,86,0.00,,,-99.99,,2013-05-12 05:11:00,
2013-05-12 01:21:00,37.0,34.0,29.83,West,260,7.0,-999.0,86,0.00,,,-99.99,,2013-05-12 05:21:00,
2013-05-12 01:31:00,37.0,34.0,29.83,WSW,250,7.0,-999.0,86,0.00,,,-99.99,,2013-05-12 05:31:00,
2013-05-12 01:42:00,37.0,34.0,29.83,WSW,250,7.0,-999.0,86,0.00,,,-99.99,,2013-05-12 05:42:00,
2013-05-12 01:51:00,37.0,34.0,29.83,WSW,250,6.0,-999.0,86,0.00,,,-99.99,,2013-05-12 05:51:00,
2013-05-12 02:01:00,37.0,34.0,29.83,WSW,250,6.0,-999.0,86,0.00,,,-99.99,,2013-05-12 06:01:00,
2013-05-12 02:11:00,37.0,34.0,29.83,West,260,7.0,-999.0,86,0.00,,,-99.99,,2013-05-12 06:11:00,
2013-05-12 02:21:00,39.0,34.0,29.83,West,260,8.0,-999.0,80,0.00,,,-99.99,,2013-05-12 06:21:00,
2013-05-12 02:31:00,39.0,34.0,29.82,West,260,7.0,-999.0,80,0.00,,,-99.99,,2013-05-12 06:31:00,
2013-05-12 02:41:00,39.0,34.0,29.82,West,270,7.0,-999.0,80,0.00,,,-99.99,,2013-05-12 06:41:00,
2013-05-12 02:51:00,37.0,34.0,29.82,West,260,6.0,-999.0,86,0.00,,,-99.99,,2013-05-12 06:51:00,
2013-05-12 03:01:00,37.0,34.0,29.82,West,260,6.0,-999.0,86,0.00,,,-99.99,,2013-05-12 07:01:00,
2013-05-12 03:11:00,37.0,32.0,29.82,West,270,8.0,-999.0,80,0.00,,,-99.99,,2013-05-12 07:11:00,
2013-05-12 03:21:00,37.0,32.0,29.82,West,270,12.0,-999.0,80,0.00,,,-99.99,,2013-05-12 07:21:00,
2013-05-12 03:31:00,39.0,32.0,29.82,West,270,8.0,-999.0,75,0.00,,,-99.99,,2013-05-12 07:31:00,
2013-05-12 03:42:00,37.0,30.0,29.82,West,280,9.0,-999.0,74,0.00,,,-99.99,,2013-05-12 07:42:00,
2013-05-12 03:51:00,37.0,30.0,29.82,West,280,13.0,22.0,74,0.00,,,-99.99,,2013-05-12 07:51:00,
2013-05-12 04:01:00,37.0,30.0,29.82,West,280,13.0,22.0,74,0.00,,,-99.99,,2013-05-12 08:01:00,
2013-05-12 04:11:00,37.0,30.0,29.82,West,280,12.0,21.0,74,0.00,,,-99.99,,2013-05-12 08:11:00,
2013-05-12 04:21:00,37.0,30.0,29.82,West,280,10.0,16.0,74,0.00,,,-99.99,,2013-05-12 08:21:00,
2013-05-12 04:31:00,37.0,30.0,29.82,West,280,13.0,17.0,74,0.00,,,-99.99,,2013-05-12 08:31:00,
2013-05-12 04:41:00,37.0,30.0,29.82,West,270,9.0,18.0,74,0.00,,,-99.99,,2013-05-12 08:41:00,
2013-05-12 04:52:00,37.0,30.0,29.81,West,270,12.0,20.0,74,0.00,,,-99.99,,2013-05-12 08:52:00,
2013-05-12 05:01:00,37.0,30.0,29.81,West,270,12.0,20.0,74,0.00,,,-99.99,,2013-05-12 09:01:00,
2013-05-12 05:11:00,37.0,30.0,29.82,West,270,10.0,18.0,74,0.00,,,-99.99,,2013-05-12 09:11:00,
2013-05-12 05:21:00,37.0,30.0,29.82,West,280,12.0,20.0,74,0.00,,,-99.99,,2013-05-12 09:21:00,
2013-05-12 05:32:00,37.0,30.0,29.82,West,280,15.0,18.0,74,0.00,,,-99.99,,2013-05-12 09:32:00,
2013-05-12 05:42:00,37.0,30.0,29.82,West,280,12.0,18.0,74,0.00,,,-99.99,,2013-05-12 09:42:00,
2013-05-12 05:52:00,37.0,30.0,29.82,West,280,15.0,21.0,74,0.00,,,-99.99,,2013-05-12 09:52:00,
2013-05-12 06:02:00,37.0,30.0,29.82,West,280,15.0,21.0,74,0.00,,,-99.99,,2013-05-12 10:02:00,
2013-05-12 06:12:00,37.0,30.0,29.82,West,280,14.0,18.0,74,0.00,,,-99.99,,2013-05-12 10:12:00,
2013-05-12 06:22:00,37.0,30.0,29.82,WNW,290,13.0,23.0,74,0.00,,,-99.99,,2013-05-12 10:22:00,
2013-05-12 06:32:00,37.0,30.0,29.82,West,280,15.0,22.0,74,0.00,,,-99.99,,2013-05-12 10:32:00,
2013-05-12 06:41:00,37.0,30.0,29.82,West,280,14.0,23.0,74,0.00,,,-99.99,,2013-05-12 10:41:00,
2013-05-12 06:52:00,37.0,30.0,29.83,West,280,13.0,24.0,74,0.00,,,-99.99,,2013-05-12 10:52:00,
2013-05-12 07:02:00,37.0,30.0,29.83,West,280,13.0,24.0,74,0.00,,,-99.99,,2013-05-12 11:02:00,
2013-05-12 07:11:00,37.0,30.0,29.83,West,280,10.0,22.0,74,0.00,,,-99.99,,2013-05-12 11:11:00,
2013-05-12 07:21:00,37.0,30.0,29.83,West,280,15.0,24.0,74,0.00,,,-99.99,,2013-05-12 11:21:00,
2013-05-12 07:31:00,37.0,30.0,29.84,West,280,13.0,21.0,74,0.00,,,-99.99,,2013-05-12 11:31:00,
2013-05-12 07:41:00,37.0,32.0,29.84,WNW,290,12.0,21.0,80,0.00,,,-99.99,,2013-05-12 11:41:00,
2013-05-12 07:51:00,39.0,32.0,29.84,West,280,12.0,25.0,75,0.00,,,-99.99,,2013-05-12 11:51:00,
2013-05-12 08:01:00,39.0,32.0,29.84,West,280,12.0,25.0,75,0.00,,,-99.99,,2013-05-12 12:01:00,
2013-05-12 08:11:00,39.0,32.0,29.85,West,280,15.0,23.0,75,0.00,,,0.00,,2013-05-12 12:11:00,
2013-05-12 08:21:00,39.0,32.0,29.85,WNW,290,13.0,24.0,75,0.00,,,0.00,,2013-05-12 12:21:00,
2013-05-12 08:31:00,39.0,32.0,29.86,West,280,15.0,27.0,75,0.00,,,0.00,,2013-05-12 12:31:00,
2013-05-12 08:41:00,39.0,32.0,29.86,WNW,300,17.0,27.0,75,0.00,,,0.00,,2013-05-12 12:41:00,
2013-05-12 08:51:00,41.0,30.0,29.86,NW,310,14.0,27.0,65,0.00,,,0.00,,2013-05-12 12:51:00,
2013-05-12 09:01:00,41.0,30.0,29.86,NW,310,14.0,27.0,65,0.00,,,0.00,,2013-05-12 13:01:00,
2013-05-12 09:11:00,41.0,30.0,29.87,NW,310,14.0,28.0,65,0.00,,,-99.99,,2013-05-12 13:11:00,
2013-05-12 09:21:00,43.0,32.0,29.87,NW,310,18.0,24.0,65,0.00,,,-99.99,,2013-05-12 13:21:00,
2013-05-12 09:31:00,41.0,30.0,29.88,West,280,18.0,25.0,65,0.00,,,-99.99,,2013-05-12 13:31:00,
2013-05-12 09:41:00,43.0,30.0,29.88,WNW,300,20.0,29.0,60,0.00,,,-99.99,,2013-05-12 13:41:00,
2013-05-12 09:52:00,43.0,30.0,29.88,WNW,300,14.0,25.0,60,0.00,,,-99.99,,2013-05-12 13:52:00,
2013-05-12 10:01:00,43.0,30.0,29.88,WNW,300,14.0,25.0,60,0.00,,,-99.99,,2013-05-12 14:01:00,
2013-05-12 10:11:00,45.0,30.0,29.88,NW,320,20.0,30.0,56,0.00,,,-99.99,,2013-05-12 14:11:00,
2013-05-12 10:21:00,43.0,30.0,29.88,West,280,17.0,25.0,60,0.00,,,-99.99,,2013-05-12 14:21:00,
2013-05-12 10:31:00,43.0,32.0,29.89,WNW,290,14.0,21.0,65,0.00,,,-99.99,,2013-05-12 14:31:00,
2013-05-12 10:41:00,43.0,32.0,29.89,WNW,290,16.0,24.0,65,0.00,,,-99.99,,2013-05-12 14:41:00,
2013-05-12 10:51:00,43.0,34.0,29.89,West,270,15.0,24.0,70,0.00,,,-99.99,,2013-05-12 14:51:00,
2013-05-12 11:01:00,43.0,34.0,29.89,West,270,15.0,24.0,70,0.00,,,-99.99,,2013-05-12 15:01:00,
2013-05-12 11:11:00,45.0,34.0,29.89,WNW,290,14.0,23.0,65,0.00,,,-99.99,,2013-05-12 15:11:00,
2013-05-12 11:21:00,45.0,30.0,29.89,WNW,300,18.0,27.0,56,0.00,,,-99.99,,2013-05-12 15:21:00,
2013-05-12 11:33:00,43.0,30.0,29.90,WNW,290,16.0,33.0,60,0.00,,,-99.99,,2013-05-12 15:33:00,
2013-05-12 11:42:00,43.0,30.0,29.90,WNW,300,14.0,27.0,60,0.00,,,-99.99,,2013-05-12 15:42:00,
2013-05-12 11:52:00,45.0,30.0,29.90,WNW,300,21.0,30.0,56,0.00,,,-99.99,,2013-05-12 15:52:00,
2013-05-12 12:02:00,45.0,30.0,29.90,WNW,300,21.0,30.0,56,0.00,,,-99.99,,2013-05-12 16:02:00,
2013-05-12 12:12:00,45.0,30.0,29.91,WNW,290,20.0,27.0,56,0.00,,,-99.99,,2013-05-12 16:12:00,
2013-05-12 12:23:00,45.0,30.0,29.91,NW,310,16.0,29.0,56,0.00,,,-99.99,,2013-05-12 16:23:00,
2013-05-12 12:32:00,45.0,30.0,29.91,WNW,290,22.0,31.0,56,0.00,,,-99.99,,2013-05-12 16:32:00,
2013-05-12 12:41:00,45.0,28.0,29.92,NW,310,22.0,31.0,52,0.00,,,-99.99,,2013-05-12 16:41:00,
2013-05-12 12:52:00,45.0,28.0,29.92,WNW,300,22.0,31.0,52,0.00,,,-99.99,,2013-05-12 16:52:00,
2013-05-12 13:01:00,45.0,28.0,29.92,WNW,300,22.0,31.0,52,0.00,,,-99.99,,2013-05-12 17:01:00,
2013-05-12 13:11:00,45.0,28.0,29.93,NW,310,22.0,30.0,52,0.00,,,-99.99,,2013-05-12 17:11:00,
2013-05-12 13:22:00,45.0,28.0,29.93,WNW,290,20.0,30.0,52,0.00,,,-99.99,,2013-05-12 17:22:00,
2013-05-12 13:32:00,46.0,30.0,29.94,NW,310,23.0,37.0,52,0.00,,,-99.99,,2013-05-12 17:32:00,
2013-05-12 13:42:00,45.0,28.0,29.94,WNW,300,24.0,37.0,52,0.00,,,-99.99,,2013-05-12 17:42:00,
2013-05-12 13:52:00,43.0,28.0,29.95,NW,310,23.0,35.0,56,0.00,,,-99.99,,2013-05-12 17:52:00,
2013-05-12 14:01:00,43.0,28.0,29.95,NW,310,23.0,35.0,56,0.00,,,-99.99,,2013-05-12 18:01:00,
2013-05-12 14:12:00,43.0,28.0,29.95,NW,310,21.0,30.0,56,0.00,,,-99.99,,2013-05-12 18:12:00,
2013-05-12 14:21:00,41.0,28.0,29.96,West,280,15.0,25.0,60,0.00,,,-99.99,,2013-05-12 18:21:00,
2013-05-12 14:31:00,41.0,28.0,29.96,WNW,300,18.0,29.0,60,0.00,,,-99.99,,2013-05-12 18:31:00,
2013-05-12 14:41:00,41.0,27.0,29.97,WNW,300,18.0,29.0,56,0.00,,,-99.99,,2013-05-12 18:41:00,
2013-05-12 14:51:00,41.0,28.0,29.97,WNW,300,12.0,18.0,60,0.00,,,-99.99,,2013-05-12 18:51:00,
2013-05-12 15:01:00,41.0,28.0,29.97,WNW,300,12.0,18.0,60,0.00,,,-99.99,,2013-05-12 19:01:00,
2013-05-12 15:11:00,39.0,27.0,29.97,NW,310,17.0,27.0,60,0.00,,,-99.99,,2013-05-12 19:11:00,
2013-05-12 15:21:00,41.0,27.0,29.97,WNW,290,13.0,28.0,56,0.00,,,-99.99,,2013-05-12 19:21:00,
2013-05-12 15:31:00,41.0,27.0,29.97,NW,310,14.0,25.0,56,0.00,,,-99.99,,2013-05-12 19:31:00,
2013-05-12 15:41:00,41.0,27.0,29.97,WNW,300,12.0,25.0,56,0.00,,,-99.99,,2013-05-12 19:41:00,
2013-05-12 15:51:00,41.0,27.0,29.97,NW,310,15.0,23.0,56,0.00,,,-99.99,,2013-05-12 19:51:00,
2013-05-12 16:01:00,41.0,27.0,29.97,NW,310,15.0,23.0,56,0.00,,,-99.99,,2013-05-12 20:01:00,
2013-05-12 16:11:00,41.0,27.0,29.98,NW,310,18.0,22.0,56,0.00,,,-99.99,,2013-05-12 20:11:00,
2013-05-12 16:21:00,41.0,27.0,29.98,WNW,290,16.0,24.0,56,0.00,,,-99.99,,2013-05-12 20:21:00,
2013-05-12 16:31:00,41.0,27.0,29.98,WNW,290,15.0,28.0,56,0.00,,,-99.99,,2013-05-12 20:31:00,
2013-05-12 16:41:00,41.0,27.0,29.98,WNW,290,13.0,22.0,56,0.00,,,-99.99,,2013-05-12 20:41:00,
2013-05-12 16:51:00,43.0,27.0,29.99,NW,320,18.0,30.0,52,0.00,,,-99.99,,2013-05-12 20:51:00,
2013-05-12 17:01:00,43.0,27.0,29.99,NW,320,18.0,30.0,52,0.00,,,-99.99,,2013-05-12 21:01:00,
2013-05-12 17:11:00,41.0,27.0,29.99,WNW,300,17.0,28.0,56,0.00,,,-99.99,,2013-05-12 21:11:00,
2013-05-12 17:21:00,41.0,27.0,30.00,NW,310,16.0,24.0,56,0.00,,,-99.99,,2013-05-12 21:21:00,
2013-05-12 17:32:00,41.0,27.0,30.00,WNW,300,16.0,28.0,56,0.00,,,-99.99,,2013-05-12 21:32:00,
2013-05-12 17:42:00,41.0,27.0,30.00,NW,310,12.0,24.0,56,0.00,,,-99.99,,2013-05-12 21:42:00,
2013-05-12 17:52:00,41.0,27.0,30.01,NW,310,17.0,24.0,56,0.00,,,-99.99,,2013-05-12 21:52:00,
2013-05-12 18:02:00,41.0,27.0,30.01,NW,310,17.0,24.0,56,0.00,,,-99.99,,2013-05-12 22:02:00,
2013-05-12 18:12:00,41.0,25.0,30.01,WNW,300,14.0,22.0,52,0.00,,,-99.99,,2013-05-12 22:12:00,
2013-05-12 18:22:00,41.0,27.0,30.02,WNW,290,16.0,23.0,56,0.00,,,-99.99,,2013-05-12 22:22:00,
2013-05-12 18:32:00,39.0,25.0,30.02,WNW,300,15.0,25.0,55,0.00,,,-99.99,,2013-05-12 22:32:00,
2013-05-12 18:42:00,39.0,25.0,30.02,WNW,300,16.0,27.0,55,0.00,,,-99.99,,2013-05-12 22:42:00,
2013-05-12 18:52:00,39.0,25.0,30.03,WNW,300,13.0,25.0,55,0.00,,,-99.99,,2013-05-12 22:52:00,
2013-05-12 19:01:00,39.0,25.0,30.03,WNW,300,13.0,25.0,55,0.00,,,-99.99,,2013-05-12 23:01:00,
2013-05-12 19:11:00,39.0,25.0,30.03,WNW,290,16.0,23.0,55,0.00,,,-99.99,,2013-05-12 23:11:00,
2013-05-12 19:21:00,39.0,25.0,30.03,WNW,300,17.0,28.0,55,0.00,,,-99.99,,2013-05-12 23:21:00,
2013-05-12 19:32:00,39.0,25.0,30.04,WNW,300,8.0,24.0,55,0.00,,,-99.99,,2013-05-12 23:32:00,
2013-05-12 19:42:00,39.0,25.0,30.04,WNW,300,9.0,16.0,55,0.00,,,-99.99,,2013-05-12 23:42:00,
2013-05-12 19:51:00,39.0,25.0,30.04,NW,310,17.0,27.0,55,0.00,,,-99.99,,2013-05-12 23:51:00,
2013-05-12 20:01:00,39.0,25.0,30.04,NW,310,17.0,27.0,55,0.00,,,-99.99,,2013-05-13 00:01:00,
2013-05-12 20:11:00,39.0,25.0,30.04,NW,310,13.0,21.0,55,0.00,,,-99.99,,2013-05-13 00:11:00,
2013-05-12 20:21:00,39.0,25.0,30.04,NNW,330,12.0,21.0,55,0.00,,,-99.99,,2013-05-13 00:21:00,
2013-05-12 20:31:00,39.0,25.0,30.05,NNW,330,8.0,16.0,55,0.00,,,-99.99,,2013-05-13 00:31:00,
2013-05-12 20:41:00,39.0,27.0,30.05,NW,320,13.0,21.0,60,0.00,,,-99.99,,2013-05-13 00:41:00,
2013-05-12 20:51:00,39.0,27.0,30.05,NNW,330,9.0,17.0,60,0.00,,,-99.99,,2013-05-13 00:51:00,
2013-05-12 21:01:00,39.0,27.0,30.05,NNW,330,9.0,17.0,60,0.00,,,-99.99,,2013-05-13 01:01:00,
2013-05-12 21:11:00,37.0,27.0,30.05,NW,320,7.0,-999.0,64,0.00,,,-99.99,,2013-05-13 01:11:00,
2013-05-12 21:21:00,37.0,27.0,30.06,NW,320,7.0,-999.0,64,0.00,,,-99.99,,2013-05-13 01:21:00,
2013-05-12 21:31:00,37.0,27.0,30.06,NW,310,3.0,-999.0,64,0.00,,,-99.99,,2013-05-13 01:31:00,
2013-05-12 21:41:00,36.0,27.0,30.06,North,0,0.0,-999.0,69,0.00,,,-99.99,,2013-05-13 01:41:00,
2013-05-12 21:51:00,36.0,27.0,30.06,WNW,300,5.0,-999.0,69,0.00,,,-99.99,,2013-05-13 01:51:00,
2013-05-12 22:01:00,36.0,27.0,30.06,WNW,300,5.0,-999.0,69,0.00,,,-99.99,,2013-05-13 02:01:00,
2013-05-12 22:11:00,36.0,27.0,30.07,WNW,300,3.0,-999.0,69,0.00,,,-99.99,,2013-05-13 02:11:00,
2013-05-12 22:21:00,36.0,27.0,30.07,NW,310,5.0,-999.0,69,0.00,,,-99.99,,2013-05-13 02:21:00,
2013-05-12 22:31:00,36.0,27.0,30.08,NW,310,5.0,-999.0,69,0.00,,,-99.99,,2013-05-13 02:31:00,
2013-05-12 22:41:00,36.0,27.0,30.08,WNW,300,3.0,-999.0,69,0.00,,,-99.99,,2013-05-13 02:41:00,
2013-05-12 22:51:00,34.0,27.0,30.08,WNW,290,6.0,-999.0,74,0.00,,,-99.99,,2013-05-13 02:51:00,
2013-05-12 23:01:00,34.0,27.0,30.08,WNW,290,6.0,-999.0,74,0.00,,,-99.99,,2013-05-13 03:01:00,
2013-05-12 23:11:00,34.0,27.0,30.08,WNW,290,5.0,-999.0,74,0.00,,,-99.99,,2013-05-13 03:11:00,
2013-05-12 23:21:00,34.0,27.0,30.08,WNW,300,5.0,-999.0,74,0.00,,,-99.99,,2013-05-13 03:21:00,
2013-05-12 23:32:00,34.0,27.0,30.09,WNW,290,5.0,-999.0,74,0.00,,,-99.99,,2013-05-13 03:32:00,
2013-05-12 23:42:00,34.0,27.0,30.09,WNW,290,5.0,-999.0,74,0.00,,,-99.99,,2013-05-13 03:42:00,
2013-05-12 23:52:00,34.0,27.0,30.08,WNW,290,3.0,-999.0,74,0.00,,,-99.99,,2013-05-13 03:52:00,